This is the latest recevied weather packets stored in our database for station/object KC5TIL-3. If no packets are shown the sender has not sent any weather packets the latest 1 day(s).
| Time | Temp. | Humidity | Pressure | Rain* | Wind** | Luminosity | Snow |
|---|---|---|---|---|---|---|---|
| 1778099954 | 16.11° C | 40% | 1011.8 hPa | 0 mm | 2.24 m/s, 170° | - | - |
| 1778098753 | 15.56° C | 41% | 1011.8 hPa | 0 mm | 2.24 m/s, 6° | - | - |
| 1778098455 | 15.56° C | 43% | 1011.8 hPa | 0 mm | 2.24 m/s, 334° | - | - |
| 1778097246 | 15° C | 44% | 1011.8 hPa | 0 mm | 2.24 m/s, 17° | - | - |
| 1778096938 | 15° C | 44% | 1012.8 hPa | 0 mm | 1.79 m/s, 322° | - | - |
| 1778095436 | 14.44° C | 48% | 1012.8 hPa | 0 mm | 1.79 m/s, 312° | - | - |
| 1778094534 | 14.44° C | 50% | 1012.8 hPa | 0 mm | 2.24 m/s, 20° | - | - |
| 1778092734 | 13.33° C | 53% | 1012.8 hPa | 0 mm | 2.24 m/s, 28° | - | - |
| 1778091832 | 13.33° C | 55% | 1012.8 hPa | 0 mm | 1.79 m/s, 25° | - | - |
| 1778090338 | 13.33° C | 59% | 1011.8 hPa | 0 mm | 4.92 m/s, 28° | - | - |
| 1778087330 | 12.78° C | 67% | 1011.8 hPa | 1.02 mm | 4.47 m/s, 34° | - | - |
| 1778086433 | 13.33° C | 72% | 1011.8 hPa | 1.02 mm | 2.68 m/s, 229° | - | - |
| 1778086134 | 13.33° C | 72% | 1011.8 hPa | 1.02 mm | 3.13 m/s, 2° | - | - |
| 1778085836 | 13.33° C | 72% | 1011.8 hPa | 0 mm | 3.13 m/s, 9° | - | - |
| 1778084938 | 13.33° C | 72% | 1012.8 hPa | 0 mm | 3.13 m/s, 29° | - | - |
| 1778084637 | 13.33° C | 71% | 1012.8 hPa | 0 mm | 4.02 m/s, 39° | - | - |
| 1778084334 | 13.33° C | 73% | 1012.8 hPa | 0 mm | 2.24 m/s, 315° | - | - |
| 1778083138 | 13.33° C | 76% | 1011.8 hPa | 0 mm | 3.13 m/s, 35° | - | - |
| 1778081939 | 13.89° C | 80% | 1011.8 hPa | 0 mm | 2.68 m/s, 333° | - | - |
| 1778081641 | 13.89° C | 80% | 1011.8 hPa | 0 mm | 4.92 m/s, 356° | - | - |
| 1778080739 | 13.33° C | 79% | 1012.8 hPa | 0 mm | 3.13 m/s, 21° | - | - |
| 1778080436 | 13.33° C | 78% | 1012.8 hPa | 0 mm | 3.13 m/s, 351° | - | - |
| 1778080135 | 12.78° C | 76% | 1012.8 hPa | 0 mm | 2.68 m/s, 271° | - | - |
| 1778079837 | 12.78° C | 75% | 1011.8 hPa | 0 mm | 1.34 m/s, 289° | - | - |
| 1778079514 | 12.78° C | 73% | 1011.8 hPa | 0 mm | 2.68 m/s, 289° | - | - |
* Rain latest hour (hover to see other rain measurements)
** Current wind speed in m/s (hover to see current wind gust speed)